timestamp,gas_concentrations,,corrected_fluxes_and_quality_flags,,,,,,,,,,storage_terms,,,turbulence,,,footprint,,
ISOdate,CO2_1_1_1,H2O_1_1_1,Tau_1_1_1,QcTau_1_1_1,H_1_1_1,QcH_1_1_1,LE_1_1_1, QcLE_1_1_1,Fc_1_1_1, QcFc_1_1_1,E_1_1_1, QcE_1_1_1,Sa_1_1_1,Sw_1_1_1,Sc_1_1_1,ustar_1_1_1,MO_length_1_1_1,ZL_1_1_1,Fetchmax_1_1_1,Fetch70_1_1_1,Fetch90_1_1_1
yyyymmddHHMM,[µmol+1mol_a-1],[mmol+1mol_a-1],[kg+1m-1s-2],[#],[W+1m-2],[#],[W+1m-2],[#],[µmol+1s-1m-2],[#],[mmol+1s-1m-2],[#],[W+1m-2],[W+1m-2],[µmol+1s-1m-2],[m+1s-1],[m],[#],[m],[m],[m]
201410210030,394.02538977644042,7.0537697210776269,0.23983436703006752,0,-52.570904829635701,0,51.350440942962841,1,4.9038584440572075,1,1.1427793520262295,1,-9999.,-9999.,-9999.,0.44725077807217811,143.22664329985071,0.15080992964960813,106.53712875980605,194.78384964740647,291.82170103642738
201410210330,419.72912632824620,6.8034772723882346,1.7796398514427731,1,-594.25073045760610,1,-19.066250392053348,2,-27.869637969429483,1,-0.42419411493670434,2,-9999.,-9999.,-9999.,1.2167417317027609,255.37146041002595,8.45826701437933232E-002,195.43587910509194,357.31911808080378,535.32915095337626
201410210400,403.38582281781339,6.8049349224089752,1.2151694427205753,1,-488.61560021691230,1,34.619279841565145,1,-18.146078173276532,2,0.77015969886019764,1,-2.0921306666672939,5.30436524874801293E-002,-13.230698219854949,1.0051257595293599,175.11642171995342,0.12334651306741963,172.85134426237391,316.02738542036548,473.46661108919949
201410210430,398.86048424917948,6.7612551840056367,0.48292870307718888,1,-114.44838018944098,0,66.338173501834234,1,-11.715689187800226,1,1.4755841050513083,1,-3.5662706140671330,-1.5912392490403873,-3.6669668951944292,0.63333486944803952,187.08732469950590,0.11545410697754795,136.60100564091726,249.75020496782335,374.17131748775370
201410210500,393.89148818827488,6.6945255498633918,0.15843172253819540,0,-29.283596282454212,0,49.035032105620033,0,-3.8635983121576625,0,1.0905220602519865,0,-4.1531156933489521,-2.4338839368715934,-4.0306748410209305,0.36256081900676518,137.21192252288742,0.15742072265183113,116.72527348267420,213.41102754291086,319.72860784011783
201410210530,390.24468650801947,6.6345605066115549,0.15752752829324268,0,1.8649512580488155,2,0.55379308327161403,2,-0.77548102391679374,2,1.23147385952566309E-002,2,-2.8863554412440009,-2.1889707869804402,-2.9602720926514188,0.36139147538445249,-2134.1204624235379,-1.01212655894179146E-002,109.25700229466995,199.75664592830984,299.27185602734534
201410210600,389.47152071448863,6.5304070823368354,0.28912811580373854,1,-52.754331387259171,1,15.610847170775548,1,-1.5083947961742992,2,0.34710365613882421,1,-2.5804404940843706,-3.8049228462168103,-0.62802603777683030,0.48943328102544764,187.43378944256452,0.11524069413652284,136.36410185186242,249.31706928484283,373.52240130699357
201410210630,389.46921810078982,6.3611984148695297,0.34607906771710545,1,-41.110366817919143,0,25.290696034056328,0,-0.80689055489070460,0,0.56229001277141499,0,-1.9029374609239196,-6.1858882844831022,-1.87154441901696885E-003,0.53528497673118947,314.71810345307847,6.86328487716638819E-002,123.86080561814397,226.45705604780102,339.27393583809265
201410210700,389.02286817440529,6.2619577975161347,0.14023099212871395,0,-7.6238459817961450,1,12.057713418266379,1,-0.15502519246999646,2,0.26806345128289222,1,-1.5486254203907537,-3.6306653659290711,-0.36303197621055694,0.34061678477864282,437.38916980363604,4.93839388151682546E-002,109.66351415588085,200.49987926091177,300.38535499442850
201410210730,388.44928589911399,6.1980319896121223,0.26153231624958384,0,-9.9913598011743598,2,26.645940096576865,1,-2.32965138611392342E-002,0,0.59235151593497337,1,-1.3912568300326984,-2.3399493019689235,-0.46673933378339150,0.46504697839337394,849.54847386102097,2.54252707933574386E-002,118.95446455890171,217.48669979428334,325.83470755739654
201410210800,388.40302703778798,6.2566063257522151,0.47883983696931720,1,-59.985940822284711,1,17.522268255484285,0,-1.2416515410952715,1,0.38953536370060671,0,0.46641682377681565,2.1441379114464909,-3.76440936399134451E-002,0.62924893803436344,350.57697216099871,6.16127176490087122E-002,137.28181491840732,250.99494146005750,376.03615957380663
201410210830,388.02835047762613,6.2398051398052328,0.36680584806554950,0,-15.629983409816827,2,13.765280150278128,1,-4.2833176986795918,1,0.30605035664526925,1,2.9481355093558093,-0.61482408828653934,-0.30484234643255681,0.55078951532475806,902.49400909462531,2.39336768802143607E-002,118.96317735136481,217.50262955770853,325.85857324579041
201410210900,388.34512935301711,6.3270761626601919,0.17568934783013182,0,45.041478332538667,0,24.805245826714216,0,-3.55710625292999794E-002,0,0.55158215502817676,0,3.3822151492319557,3.1925218318001716,0.25768354961571910,0.38123396162272360,-103.87545574863005,-0.20794132593045081,98.536812032691529,180.15671910009036,269.90759406438406
201410210930,388.62008620183985,6.3932831358740527,0.27994825708983512,0,33.879745085691916,1,46.004069736867315,1,-0.22540074457003834,0,1.0229587308117787,1,-0.27667260424808593,2.4227483817620343,0.22373348142860935,0.48116632108514346,-277.70581810248899,-7.77801493234412250E-002,127.37568013244858,232.88336767167976,348.90172167796158
201410211000,388.45990350902480,6.3938427435696390,0.29192158387003658,0,40.991969172481546,0,31.124551185823542,0,-1.5803627645185463,0,0.69210190482918155,0,0.29244131100495313,2.04749071662353108E-002,-0.13032291944421479,0.49138297043776630,-244.43943465028161,-8.83654473792374051E-002,122.86538808595095,224.63711532681336,336.54733300143312
201410211030,388.20958177885188,6.4214117421994015,0.46809881957695643,0,75.470314944771062,0,49.075081000801561,0,-1.4775518753565575,0,1.0915236635100540,0,6.0411927749639629,1.0075689876619827,-0.20348128992712983,0.62251193181485232,-269.95831239176999,-8.00123537913274563E-002,131.13763711442982,239.76142484938271,359.20630467627700
201410211100,388.02475616062850,6.3808441636077227,0.24446935387135446,0,33.647598753992305,0,28.207166930529315,0,-1.5533605838581062,0,0.62751088782996656,0,5.1454511789161455,-1.4813558572919987,-0.15014271928627071,0.45001779833369321,-228.77327585368471,-9.44166223934940624E-002,126.39410858860920,231.08874183335405,346.21304514850522
201410211130,387.85331759172203,6.3612905266828772,0.14936943713782339,1,58.002900827586842,0,56.375468191254562,0,-1.9064870607245910,0,1.2546287892667489,0,9.3540146476805788,-0.71271345659990515,-0.13906602198711768,0.35201530513766177,-63.518718076881981,-0.34005724066810866,99.832576880582110,182.52579050503644,273.45689473032519
201410211200,387.68839248406960,6.3478988775676521,0.22114080618681772,1,83.626969443487965,1,12.571359924026842,2,-2.8743319518014001,1,0.27986647601284831,2,8.2078879351935186,-0.48727763312606270,-0.13359733976400731,0.42861241711247944,-79.520106862402855,-0.27162941364472049,116.22632719671736,212.49879460142566,318.36191666316677
201410211230,387.61627203195064,6.4045320183103209,0.17313126628698669,1,165.37672362075904,0,62.653170156918868,0,-4.6048746834252308,0,1.3961947256895539,0,24.719259613889356,2.0501916701702454,-5.81815384211289699E-002,0.38002735203154137,-28.022958854048078,-0.77079654980401036,96.747653221991840,176.88556617119576,265.00681089479224
201410211300,387.89489063379847,6.2169476731231610,0.20474530567414209,1,119.13337823600907,0,48.313949661620754,0,-2.3368186856108872,0,1.0773071479045473,0,14.977973381246487,-6.7693849207728523,0.22419696310692142,0.41378258800743434,-50.204275782974776,-0.43024223859683625,105.88826240213997,193.59751500028227,290.04435555655874
201410211330,387.90589050662379,6.2030685823064289,0.24982965236218341,1,139.24672813438403,0,55.823086512354848,0,-2.7250506382301358,0,1.2455006478679602,0,14.878142395676059,-0.49929805236449964,8.82910396838560742E-003,0.45764783225322342,-58.103215868394912,-0.37175222880820374,113.30874440538074,207.16452274355689,310.37020538848031
201410211400,387.81702841224921,6.1663377392261358,0.12798300742451960,1,128.47648350809285,0,47.199151113569052,0,-1.6459839655992807,0,1.0538667095951715,0,18.108279530366687,-1.3165664329931528,-7.11180637812737632E-002,0.32803134454494559,-23.188653425180377,-0.93149005265414553,87.680632788686665,160.30816104126524,240.17083721143331
201410211430,387.90580878793099,6.1582365612280610,9.04888622556742905E-002,1,68.350052672093923,0,31.787733050942407,0,-2.4020343041432812,0,0.71008741838133571,0,11.285499855086812,-0.28973769621749484,7.09293642148811632E-002,0.27606619597892484,-25.981000982231667,-0.83137674390498584,84.177764414932312,153.90380047147448,230.57593805059395
201410211500,387.83723268682462,6.1574326379616977,0.37535200734737745,1,105.86612438519610,0,63.535108541662048,1,-2.5072114241734926,0,1.4201959923679337,1,15.818482491505831,-2.86631679139057807E-002,-5.46533624564836257E-002,0.56294694712323834,-142.23245844263749,-0.15186406982279158,130.11062218895890,237.88371401601131,356.39315168417380
201410211530,387.81947911275250,6.1184139970140619,0.18124412169819115,1,60.075719979054938,0,26.987169696551192,0,-2.2923205210593656,0,0.60343382624340713,0,7.7092033985797013,-1.3888714407812037,-1.41301905069024965E-002,0.39144233070025369,-84.257610198038094,-0.25635666557871289,117.93839327306316,215.62899742445475,323.05153088969996
201410211600,388.00621969165599,6.0484712657691295,0.12593930755076971,1,37.489122208375647,0,17.966501011003874,0,-1.6513058745387319,0,0.40178323307373354,0,3.1297645169608779,-2.4878415271297527,0.14854126877990745,0.32639057855719678,-78.266553602708854,-0.27597995575024797,115.29459552401788,210.79529194315526,315.80975926225074
201410211630,387.90596627136227,6.0437531034714249,8.02277935509636553E-002,1,9.9773032977134974,0,9.9407732001973095,0,-1.5179152770487452,0,0.22230248661310478,0,-0.23183988778470346,-0.16782931593758962,-7.97477248669609950E-002,0.26050355942953340,-149.51770637794544,-0.14446449536485201,117.04793869346450,214.00096245702636,320.61243784167903
201410211700,388.06774595393961,5.9388577729195449,1.83433656056496801E-002,0,-4.9537195470936428,0,1.8463805048556288,0,-0.17253157622828763,0,4.12815557276570919E-002,0,-4.9963864207028692,-3.7351331499984148,0.12879789372937947,0.12450857913002709,32.881038732874224,0.65691355359782100,302.08988149132483,3027.0000000000000,-9999.
201410211730,388.20981757758102,5.8691090570413040,2.39703895948645230E-003,1,-1.8194423438146592,1,1.1953969229761434,1,1.09966243150466936E-002,1,2.67207967829030078E-002,1,-5.4654348611626915,-2.4864915067940023,0.11321275998442062,4.49873018007080350E-002,4.2231046160972818,5.1147205583463178,1956.2616296005997,-9999.,-9999.
201410211800,387.75468178666944,5.9803104913374190,9.50451548318308366E-003,1,-0.15838149657235795,2,2.3388523547737150,2,-8.64673754467235878E-002,2,5.22678842987282996E-002,2,-5.8973021761403821,3.9692556157805736,-0.36305446481832515,8.95375409866114025E-002,382.51891545940856,5.64677957796105648E-002,220.06493208413161,1564.0000000000000,6316.0000000000000
201410211830,387.64973887151308,6.0297900489012299,1.69105661661102594E-002,1,3.4604978364650312,2,-0.30705122123032291,1,2.17757084104157339E-002,1,-6.86086008993366803E-003,1,-3.6135484625755470,1.7675258372691556,-8.37646583414920765E-002,0.11939464969589497,-41.513183508894826,-0.52031663616864932,150.07052906927373,481.00000000000000,1102.0000000000000
201410211900,387.86403966697560,6.0813934273332446,1.19791670364978301E-003,1,1.1633745461517098,2,-0.41111604623722348,2,-3.15266987905008650E-003,2,-9.18227433182982992E-003,2,-10.228899860895355,1.8471186210849517,0.17132718128882690,3.17523559303917180E-002,-2.3226752373423518,-9.2996212525669844,335.54856373364709,930.00000000000000,1937.0000000000000
201410211930,387.36689597471167,6.1575684827513557,9.69379449205775776E-003,0,-5.2030606067522003,0,1.7138203179391251,0,0.29042616527978382,0,3.82668384713678658E-002,0,-7.2400572667855645,2.7308886888656541,-0.39795177780778679,9.02698670402515141E-002,11.934341776802833,1.8099029174767409,771.35263098841199,7604.0000000000000,-9999.
201410212000,387.21813509510321,6.1465856175074398,2.64929686171392099E-002,0,-19.006942975929910,0,2.3888059836175057,1,0.84747488595542331,0,5.33324647752859704E-002,1,-2.6223776376809722,-0.39402882922681559,-0.11915488665469610,0.14918426017476658,14.748758468851507,1.4645300515035151,351.95847155624341,3217.0000000000000,-9999.
201410212030,390.46067614382241,6.2834126995377479,4.69295558972642121E-002,0,-64.886956453496737,1,24.666083592583924,1,7.4094009254600355,1,0.55016201083031124,1,-23.802538381307823,4.9327344917288762,2.6073033157998493,0.19817583599204375,10.129028658661554,2.1324848342224176,317.49052419570904,2661.0000000000000,-9999.
201410212100,392.15513603895977,5.9961962483421916,0.13212190850121644,0,-69.897860263142476,0,25.605606332303473,0,4.4858097211745127,0,0.57049182666920595,0,-27.099338553103767,-10.411537967573702,1.3685202630417657,0.33176787106216271,44.122965462517470,0.48954098559738096,117.10340375903453,214.10237028656374,320.76436524925202
201410212130,393.75873210887568,5.8779722573758217,0.11318973271438344,0,-41.045606874816897,0,21.077909390975101,0,2.9283627027584855,0,0.46929981636497808,0,-16.652633448995218,-4.2997329768287997,1.2985351318464735,0.30667000712861825,59.344733823308559,0.36397500853759440,105.09734331406452,192.15146265657503,287.87790564044798
201410212200,393.31229516454675,5.6047929854280500,0.25141906363000011,0,-49.643994602165826,0,24.089109757029874,0,2.1040403778967707,0,0.53603720216614215,0,-14.245502054952768,-9.9635278331089374,-0.36232617004782647,0.45651387427504131,161.85671600782018,0.13345136694208221,111.92322110634004,204.63134426291867,306.57504241892786
201410212230,394.11488591357028,5.3424690539982915,0.20031737511531028,0,-20.625529250713619,1,12.811716176477985,1,-0.32907186421255319,2,0.28494976357991997,1,-12.244285146514873,-9.5922502976488779,0.65273624943488129,0.40704329217126994,276.18135064980817,7.82094806516763080E-002,101.48266538648528,185.54267856256419,277.97674278948358
201410212300,396.13062541920635,5.2441751490834294,0.17245840827336861,0,-35.848266792319237,0,4.8177501947006824,0,1.3350457075956348,1,0.10708714733564306,0,-15.434664201967159,-3.6055514305040561,1.6435108886177996,0.37719688141316338,126.45955517641852,0.17080559843711873,108.14000755461271,197.71442329628471,296.21223438288422
201410212330,396.70532589343622,5.1800582571509528,0.24749207340529261,0,-41.405237865123858,0,7.8597744757073693,0,2.6793898607714652,0,0.17460533693393396,0,-14.191033321794679,-2.3584817040817496,0.46962264970760575,0.45135330647764504,187.59463053787852,0.11514188832626847,106.47996675998345,194.67933928084594,291.66512546303750
201410220000,394.93166236088217,4.9864705460067658,0.36474633687133617,0,-52.822188654940632,0,18.282345523727191,0,2.9974395942076084,0,0.40609711143217420,0,-2.8585773167397099,-7.1252912215723505,-1.4500869992402106,0.54778212095087397,262.86726340011302,8.21707492998944300E-002,108.91128478762917,199.12456406449567,298.32488221495578
